Time,TemperatureF,DewpointF,PressureIn,WindDirection,WindDirectionDegrees,WindSpeedMPH,WindSpeedGustMPH,Humidity,HourlyPrecipIn,Conditions,Clouds,dailyrainin,SoftwareType,DateUTC
2013-09-09 00:10:00,60.8,48.0,29.81,SSW,205,3.0,7.0,62,0.00,,,0.00,weatherlink.com 1.10,2013-09-09 06:10:00,
2013-09-09 00:25:00,58.3,47.0,29.82,SSE,161,1.0,4.0,67,0.00,,,0.00,weatherlink.com 1.10,2013-09-09 06:25:00,
2013-09-09 00:40:00,57.9,48.0,29.82,ESE,112,1.0,2.0,69,0.00,,,0.00,weatherlink.com 1.10,2013-09-09 06:40:00,
2013-09-09 00:55:00,57.3,47.0,29.82,ESE,112,0.0,2.0,69,0.00,,,0.00,weatherlink.com 1.10,2013-09-09 06:55:00,
2013-09-09 01:10:00,57.6,48.0,29.82,ENE,63,0.0,3.0,70,0.00,,,0.00,weatherlink.com 1.10,2013-09-09 07:10:00,
2013-09-09 01:25:00,57.2,48.0,29.82,SE,126,0.0,2.0,72,0.00,,,0.00,weatherlink.com 1.10,2013-09-09 07:25:00,
2013-09-09 01:40:00,57.1,48.0,29.82,East,92,3.0,5.0,71,0.00,,,0.00,weatherlink.com 1.10,2013-09-09 07:40:00,
2013-09-09 01:55:00,57.4,48.0,29.82,ESE,116,0.0,3.0,70,0.00,,,0.00,weatherlink.com 1.10,2013-09-09 07:55:00,
2013-09-09 02:10:00,57.8,48.0,29.81,NW,320,3.0,3.0,71,0.00,,,0.00,weatherlink.com 1.10,2013-09-09 08:10:00,
2013-09-09 02:25:00,57.1,49.0,29.81,SSE,155,3.0,3.0,74,0.00,,,0.00,weatherlink.com 1.10,2013-09-09 08:25:00,
2013-09-09 02:40:00,57.8,48.0,29.82,ESE,123,2.0,5.0,70,0.00,,,0.00,weatherlink.com 1.10,2013-09-09 08:40:00,
2013-09-09 02:55:00,57.7,49.0,29.82,WNW,288,0.0,3.0,72,0.00,,,0.00,weatherlink.com 1.10,2013-09-09 08:55:00,
2013-09-09 03:10:00,57.8,48.0,29.82,ESE,119,0.0,3.0,69,0.00,,,0.00,weatherlink.com 1.10,2013-09-09 09:10:00,
2013-09-09 03:25:00,57.2,49.0,29.82,WNW,286,1.0,3.0,74,0.00,,,0.00,weatherlink.com 1.10,2013-09-09 09:25:00,
2013-09-09 03:40:00,57.1,49.0,29.81,WNW,286,1.0,3.0,74,0.00,,,0.00,weatherlink.com 1.10,2013-09-09 09:40:00,
2013-09-09 03:55:00,56.6,48.0,29.82,WNW,286,0.0,3.0,74,0.00,,,0.00,weatherlink.com 1.10,2013-09-09 09:55:00,
2013-09-09 04:10:00,56.5,49.0,29.82,WNW,286,0.0,3.0,75,0.00,,,0.00,weatherlink.com 1.10,2013-09-09 10:10:00,
2013-09-09 04:25:00,56.3,48.0,29.82,SSE,157,0.0,3.0,75,0.00,,,0.00,weatherlink.com 1.10,2013-09-09 10:25:00,
2013-09-09 04:40:00,56.1,49.0,29.82,SSE,157,0.0,0.0,76,0.00,,,0.00,weatherlink.com 1.10,2013-09-09 10:40:00,
2013-09-09 04:55:00,56.4,49.0,29.82,SSE,157,0.0,0.0,76,0.00,,,0.00,weatherlink.com 1.10,2013-09-09 10:55:00,
2013-09-09 05:10:00,56.1,49.0,29.82,WSW,257,0.0,0.0,76,0.00,,,0.00,weatherlink.com 1.10,2013-09-09 11:10:00,
2013-09-09 05:25:00,56.2,49.0,29.82,WSW,257,0.0,0.0,76,0.00,,,0.00,weatherlink.com 1.10,2013-09-09 11:25:00,
2013-09-09 05:40:00,56.2,48.0,29.82,WSW,257,0.0,0.0,75,0.00,,,0.00,weatherlink.com 1.10,2013-09-09 11:40:00,
2013-09-09 05:55:00,55.8,49.0,29.82,WSW,257,0.0,0.0,77,0.00,,,0.00,weatherlink.com 1.10,2013-09-09 11:55:00,
2013-09-09 06:10:00,55.8,49.0,29.83,WSW,257,0.0,0.0,78,0.00,,,0.00,weatherlink.com 1.10,2013-09-09 12:10:00,
2013-09-09 06:25:00,56.2,49.0,29.83,WSW,257,0.0,0.0,78,0.00,,,0.00,weatherlink.com 1.10,2013-09-09 12:25:00,
2013-09-09 06:40:00,56.5,49.0,29.84,South,169,1.0,2.0,77,0.00,,,0.00,weatherlink.com 1.10,2013-09-09 12:40:00,
2013-09-09 06:55:00,56.3,49.0,29.84,ENE,63,0.0,5.0,76,0.00,,,0.00,weatherlink.com 1.10,2013-09-09 12:55:00,
2013-09-09 07:10:00,55.8,49.0,29.84,NNW,338,0.0,1.0,77,0.00,,,0.00,weatherlink.com 1.10,2013-09-09 13:10:00,
2013-09-09 07:25:00,55.8,48.0,29.85,SSE,150,2.0,5.0,76,0.00,,,0.00,weatherlink.com 1.10,2013-09-09 13:25:00,
2013-09-09 07:40:00,55.9,47.0,29.86,SE,141,3.0,3.0,73,0.00,,,0.00,weatherlink.com 1.10,2013-09-09 13:40:00,
2013-09-09 07:55:00,56.4,48.0,29.86,South,178,1.0,5.0,73,0.00,,,0.00,weatherlink.com 1.10,2013-09-09 13:55:00,
2013-09-09 08:11:00,57.0,48.0,29.86,South,175,9.0,15.0,73,0.00,,,0.00,weatherlink.com 1.10,2013-09-09 14:11:00,
2013-09-09 08:26:00,58.9,49.0,29.86,SSW,194,3.0,8.0,69,0.00,,,0.00,weatherlink.com 1.10,2013-09-09 14:26:00,
2013-09-09 08:41:00,58.8,49.0,29.87,SSW,209,5.0,7.0,70,0.00,,,0.00,weatherlink.com 1.10,2013-09-09 14:41:00,
2013-09-09 08:56:00,58.4,49.0,29.87,South,169,0.0,5.0,72,0.00,,,0.00,weatherlink.com 1.10,2013-09-09 14:56:00,
2013-09-09 09:11:00,58.0,50.0,29.87,West,268,0.0,5.0,74,0.00,,,0.00,weatherlink.com 1.10,2013-09-09 15:11:00,
2013-09-09 09:26:00,58.3,50.0,29.87,SW,223,0.0,3.0,74,0.00,,,0.00,weatherlink.com 1.10,2013-09-09 15:26:00,
2013-09-09 09:56:00,61.0,50.0,29.87,SE,140,5.0,7.0,68,0.00,,,0.00,weatherlink.com 1.10,2013-09-09 15:56:00,
2013-09-09 10:11:00,62.0,50.0,29.87,SSW,200,2.0,6.0,66,0.00,,,0.00,weatherlink.com 1.10,2013-09-09 16:11:00,
2013-09-09 10:26:00,63.2,51.0,29.87,SSW,207,2.0,5.0,64,0.00,,,0.00,weatherlink.com 1.10,2013-09-09 16:26:00,
2013-09-09 10:41:00,63.8,51.0,29.87,SSW,205,2.0,10.0,64,0.00,,,0.00,weatherlink.com 1.10,2013-09-09 16:41:00,
2013-09-09 10:56:00,65.2,51.0,29.87,SSW,194,7.0,8.0,60,0.00,,,0.00,weatherlink.com 1.10,2013-09-09 16:56:00,
2013-09-09 11:11:00,64.6,51.0,29.87,SSW,202,4.0,8.0,61,0.00,,,0.00,weatherlink.com 1.10,2013-09-09 17:11:00,
2013-09-09 11:26:00,65.9,51.0,29.87,SSW,212,5.0,11.0,59,0.00,,,0.00,weatherlink.com 1.10,2013-09-09 17:26:00,
2013-09-09 11:41:00,67.0,50.0,29.86,South,183,8.0,13.0,55,0.00,,,0.00,weatherlink.com 1.10,2013-09-09 17:41:00,
2013-09-09 11:56:00,67.1,51.0,29.86,SE,139,6.0,12.0,57,0.00,,,0.00,weatherlink.com 1.10,2013-09-09 17:56:00,
2013-09-09 12:11:00,67.9,51.0,29.85,SSW,201,9.0,11.0,55,0.00,,,0.00,weatherlink.com 1.10,2013-09-09 18:11:00,
2013-09-09 12:26:00,68.7,51.0,29.85,SW,231,5.0,12.0,53,0.00,,,0.00,weatherlink.com 1.10,2013-09-09 18:26:00,
2013-09-09 12:41:00,69.7,51.0,29.85,South,178,3.0,11.0,52,0.00,,,0.00,weatherlink.com 1.10,2013-09-09 18:41:00,
2013-09-09 12:56:00,70.5,51.0,29.84,SSE,155,8.0,13.0,50,0.00,,,0.00,weatherlink.com 1.10,2013-09-09 18:56:00,
2013-09-09 13:11:00,70.6,50.0,29.84,South,184,2.0,16.0,49,0.00,,,0.00,weatherlink.com 1.10,2013-09-09 19:11:00,
2013-09-09 13:26:00,71.2,51.0,29.83,South,174,5.0,11.0,49,0.00,,,0.00,weatherlink.com 1.10,2013-09-09 19:26:00,
2013-09-09 13:41:00,71.9,50.0,29.82,South,183,7.0,12.0,47,0.00,,,0.00,weatherlink.com 1.10,2013-09-09 19:41:00,
2013-09-09 13:57:00,73.0,50.0,29.82,SSW,200,6.0,11.0,45,0.00,,,0.00,weatherlink.com 1.10,2013-09-09 19:57:00,
2013-09-09 14:12:00,73.6,50.0,29.81,SSE,158,2.0,9.0,44,0.00,,,0.00,weatherlink.com 1.10,2013-09-09 20:12:00,
2013-09-09 14:27:00,74.8,50.0,29.80,South,186,5.0,7.0,42,0.00,,,0.00,weatherlink.com 1.10,2013-09-09 20:27:00,
2013-09-09 14:42:00,75.5,51.0,29.80,SSE,155,7.0,8.0,42,0.00,,,0.00,weatherlink.com 1.10,2013-09-09 20:42:00,
2013-09-09 14:57:00,75.2,50.0,29.79,SSW,200,5.0,9.0,42,0.00,,,0.00,weatherlink.com 1.10,2013-09-09 20:57:00,
2013-09-09 15:12:00,75.5,51.0,29.79,SSW,200,2.0,7.0,42,0.00,,,0.00,weatherlink.com 1.10,2013-09-09 21:12:00,
2013-09-09 15:27:00,75.4,51.0,29.79,SW,215,3.0,9.0,42,0.00,,,0.00,weatherlink.com 1.10,2013-09-09 21:27:00,
2013-09-09 15:42:00,76.7,51.0,29.79,SE,130,1.0,8.0,40,0.00,,,0.00,weatherlink.com 1.10,2013-09-09 21:42:00,
2013-09-09 15:57:00,76.9,51.0,29.78,SE,134,2.0,11.0,40,0.00,,,0.00,weatherlink.com 1.10,2013-09-09 21:57:00,
2013-09-09 16:12:00,76.4,50.0,29.78,South,190,0.0,9.0,40,0.00,,,0.00,weatherlink.com 1.10,2013-09-09 22:12:00,
2013-09-09 16:27:00,77.8,51.0,29.78,SW,234,6.0,9.0,39,0.00,,,0.00,weatherlink.com 1.10,2013-09-09 22:27:00,
2013-09-09 16:42:00,77.2,50.0,29.77,South,175,3.0,7.0,38,0.00,,,0.00,weatherlink.com 1.10,2013-09-09 22:42:00,
2013-09-09 16:57:00,77.8,51.0,29.77,South,185,6.0,9.0,39,0.00,,,0.00,weatherlink.com 1.10,2013-09-09 22:57:00,
2013-09-09 17:12:00,78.6,50.0,29.77,West,271,4.0,7.0,37,0.00,,,0.00,weatherlink.com 1.10,2013-09-09 23:12:00,
2013-09-09 17:27:00,79.0,50.0,29.77,WNW,286,2.0,6.0,36,0.00,,,0.00,weatherlink.com 1.10,2013-09-09 23:27:00,
2013-09-09 17:42:00,78.5,50.0,29.76,WSW,240,2.0,7.0,37,0.00,,,0.00,weatherlink.com 1.10,2013-09-09 23:42:00,
2013-09-09 17:57:00,78.2,50.0,29.76,South,179,1.0,6.0,37,0.00,,,0.00,weatherlink.com 1.10,2013-09-09 23:57:00,
2013-09-09 18:12:00,77.7,50.0,29.76,SW,233,3.0,7.0,38,0.00,,,0.00,weatherlink.com 1.10,2013-09-10 00:12:00,
2013-09-09 18:27:00,77.8,50.0,29.76,SW,223,4.0,4.0,38,0.00,,,0.00,weatherlink.com 1.10,2013-09-10 00:27:00,
2013-09-09 18:42:00,76.8,51.0,29.76,South,181,1.0,5.0,40,0.00,,,0.00,weatherlink.com 1.10,2013-09-10 00:42:00,
2013-09-09 18:57:00,76.0,51.0,29.76,South,176,0.0,4.0,41,0.00,,,0.00,weatherlink.com 1.10,2013-09-10 00:57:00,
2013-09-09 19:12:00,75.0,52.0,29.76,South,176,0.0,0.0,45,0.00,,,0.00,weatherlink.com 1.10,2013-09-10 01:12:00,
2013-09-09 19:27:00,72.9,53.0,29.76,South,176,0.0,0.0,49,0.00,,,0.00,weatherlink.com 1.10,2013-09-10 01:27:00,
2013-09-09 19:42:00,71.0,52.0,29.76,South,176,0.0,0.0,51,0.00,,,0.00,weatherlink.com 1.10,2013-09-10 01:42:00,
2013-09-09 19:57:00,69.6,53.0,29.76,South,176,0.0,0.0,55,0.00,,,0.00,weatherlink.com 1.10,2013-09-10 01:57:00,
2013-09-09 20:12:00,67.3,51.0,29.76,South,176,0.0,1.0,57,0.00,,,0.00,weatherlink.com 1.10,2013-09-10 02:12:00,
2013-09-09 20:27:00,65.9,52.0,29.77,NNE,15,0.0,3.0,62,0.00,,,0.00,weatherlink.com 1.10,2013-09-10 02:27:00,
2013-09-09 20:42:00,64.3,52.0,29.77,NNE,15,1.0,2.0,64,0.00,,,0.00,weatherlink.com 1.10,2013-09-10 02:42:00,
2013-09-09 20:57:00,63.4,53.0,29.77,NNE,15,0.0,0.0,70,0.00,,,0.00,weatherlink.com 1.10,2013-09-10 02:57:00,
2013-09-09 21:12:00,62.9,50.0,29.78,NNE,15,0.0,0.0,64,0.00,,,0.00,weatherlink.com 1.10,2013-09-10 03:12:00,
2013-09-09 21:27:00,61.8,52.0,29.78,NNE,15,0.0,0.0,70,0.00,,,0.00,weatherlink.com 1.10,2013-09-10 03:27:00,
2013-09-09 21:42:00,60.5,53.0,29.79,NNE,15,0.0,0.0,75,0.00,,,0.00,weatherlink.com 1.10,2013-09-10 03:42:00,
2013-09-09 21:57:00,59.7,50.0,29.79,East,93,0.0,0.0,71,0.00,,,0.00,weatherlink.com 1.10,2013-09-10 03:57:00,
2013-09-09 22:12:00,58.7,52.0,29.79,NNW,335,0.0,0.0,79,0.00,,,0.00,weatherlink.com 1.10,2013-09-10 04:12:00,
2013-09-09 22:28:00,59.5,51.0,29.80,NE,52,0.0,2.0,74,0.00,,,0.00,weatherlink.com 1.10,2013-09-10 04:28:00,
2013-09-09 22:42:00,58.3,51.0,29.80,NE,52,0.0,2.0,77,0.00,,,0.00,weatherlink.com 1.10,2013-09-10 04:42:00,
2013-09-09 22:57:00,57.9,50.0,29.80,ESE,105,0.0,3.0,76,0.00,,,0.00,weatherlink.com 1.10,2013-09-10 04:57:00,
2013-09-09 23:12:00,56.6,50.0,29.81,ENE,72,0.0,3.0,78,0.00,,,0.00,weatherlink.com 1.10,2013-09-10 05:12:00,
2013-09-09 23:27:00,56.0,50.0,29.81,ENE,57,0.0,2.0,81,0.00,,,0.00,weatherlink.com 1.10,2013-09-10 05:27:00,
2013-09-09 23:42:00,56.1,50.0,29.82,ESE,123,0.0,1.0,80,0.00,,,0.00,weatherlink.com 1.10,2013-09-10 05:42:00,
2013-09-09 23:57:00,55.3,51.0,29.82,ESE,123,0.0,1.0,84,0.00,,,0.00,weatherlink.com 1.10,2013-09-10 05:57:00,